When you browse on this site, cookies collect data to enhance your experience and personalize the content and advertising you see.
Visit our Privacy Policy to learn more. By continuing to use the site, you agree to this use of cookies and data.
  • In Österreich
  • Länderverzeichnis
  • Für 7 Tage
  • Wassertemperatur
  • Wetterkarte
  • News
  • Widgets
  • user-avatar
    Anmelden

    Stündliche Wetter Zorya

    Heute, 15 Dezember, Sonntag

    Zeit Temperatur Niederschläge Wind Luftdruck Luftfeuchtigkeit
    00:00 +3°C° 0 mm 4 m/S 745 mmHg 86%
    01:00 +3°C° 0 mm 4 m/S 745 mmHg 89%
    02:00 +3°C° 0 mm 4 m/S 745 mmHg 90%
    03:00 +3°C° 0 mm 4 m/S 745 mmHg 92%
    04:00 +4°C° 0 mm 4 m/S 744 mmHg 93%
    05:00 +4°C° 0 mm 4 m/S 744 mmHg 95%
    06:00 +4°C° 0 mm 4 m/S 744 mmHg 95%
    07:00 +3°C° 0 mm 5 m/S 744 mmHg 95%
    08:00 +3°C° 0 mm 5 m/S 744 mmHg 94%
    09:00 +3°C° 0 mm 5 m/S 744 mmHg 92%
    10:00 +5°C° 0 mm 5 m/S 744 mmHg 90%
    11:00 +6°C° 0 mm 5 m/S 743 mmHg 89%
    12:00 +6°C° 0.7 mm 5 m/S 744 mmHg 91%
    13:00 +6°C° 0.7 mm 4 m/S 744 mmHg 93%
    14:00 +6°C° 0.7 mm 4 m/S 744 mmHg 95%
    15:00 +5°C° 0.2 mm 5 m/S 744 mmHg 91%
    16:00 +5°C° 0.2 mm 5 m/S 745 mmHg 87%
    17:00 +3°C° 0.2 mm 6 m/S 746 mmHg 84%
    18:00 +3°C° 0 mm 5 m/S 746 mmHg 84%
    19:00 +3°C° 0 mm 4 m/S 747 mmHg 84%
    20:00 +2°C° 0 mm 3 m/S 748 mmHg 84%
    21:00 +2°C° 0 mm 3 m/S 749 mmHg 86%
    22:00 +1°C° 0 mm 3 m/S 749 mmHg 87%
    23:00 +1°C° 0 mm 3 m/S 750 mmHg 88%

    Morgen, 16 Dezember, Montag

    Zeit Temperatur Niederschläge Wind Luftdruck Luftfeuchtigkeit
    00:00 +1°C° 0 mm 3 m/S 750 mmHg 89%
    01:00 +1°C° 0 mm 3 m/S 751 mmHg 90%
    02:00 0°C° 0 mm 3 m/S 751 mmHg 91%
    03:00 0°C° 0 mm 3 m/S 751 mmHg 90%
    04:00 0°C° 0 mm 3 m/S 751 mmHg 89%
    05:00 0°C° 0 mm 3 m/S 751 mmHg 89%
    06:00 0°C° 0 mm 4 m/S 751 mmHg 86%
    07:00 +1°C° 0 mm 4 m/S 752 mmHg 82%
    08:00 +1°C° 0 mm 5 m/S 752 mmHg 79%
    09:00 +2°C° 0 mm 5 m/S 752 mmHg 75%
    10:00 +2°C° 0 mm 5 m/S 752 mmHg 70%
    11:00 +3°C° 0 mm 5 m/S 752 mmHg 66%
    12:00 +3°C° 0.1 mm 5 m/S 752 mmHg 66%
    13:00 +5°C° 0.1 mm 5 m/S 752 mmHg 66%
    14:00 +5°C° 0.1 mm 4 m/S 752 mmHg 65%
    15:00 +5°C° 0 mm 4 m/S 752 mmHg 68%
    16:00 +4°C° 0 mm 4 m/S 752 mmHg 72%
    17:00 +4°C° 0 mm 3 m/S 752 mmHg 75%
    18:00 +3°C° 0 mm 3 m/S 752 mmHg 77%
    19:00 +3°C° 0 mm 3 m/S 753 mmHg 79%
    20:00 +4°C° 0 mm 2 m/S 753 mmHg 80%
    21:00 +4°C° 0 mm 2 m/S 753 mmHg 82%
    22:00 +3°C° 0 mm 2 m/S 753 mmHg 83%
    23:00 +3°C° 0 mm 2 m/S 753 mmHg 85%

    übermorgen, 17 Dezember, Dienstag

    Zeit Temperatur Niederschläge Wind Luftdruck Luftfeuchtigkeit
    00:00 +4°C° 0 mm 1 m/S 753 mmHg 86%
    01:00 +4°C° 0 mm 1 m/S 754 mmHg 86%
    02:00 +4°C° 0 mm 1 m/S 754 mmHg 87%
    03:00 +4°C° 0 mm 1 m/S 754 mmHg 87%
    04:00 +4°C° 0 mm 1 m/S 754 mmHg 88%
    05:00 +3°C° 0 mm 0 m/S 754 mmHg 88%
    06:00 +4°C° 0 mm 1 m/S 754 mmHg 88%
    07:00 +4°C° 0 mm 1 m/S 754 mmHg 88%
    08:00 +4°C° 0 mm 1 m/S 755 mmHg 87%
    09:00 +5°C° 0 mm 1 m/S 755 mmHg 83%
    10:00 +6°C° 0 mm 1 m/S 755 mmHg 79%
    11:00 +6°C° 0 mm 2 m/S 755 mmHg 74%
    12:00 +7°C° 0 mm 2 m/S 754 mmHg 73%
    13:00 +7°C° 0 mm 2 m/S 754 mmHg 72%
    14:00 +7°C° 0 mm 2 m/S 754 mmHg 71%
    15:00 +6°C° 0 mm 2 m/S 753 mmHg 77%
    16:00 +6°C° 0 mm 2 m/S 753 mmHg 82%
    17:00 +5°C° 0 mm 2 m/S 753 mmHg 87%
    18:00 +3°C° 0 mm 3 m/S 753 mmHg 90%
    19:00 +3°C° 0 mm 3 m/S 753 mmHg 92%
    20:00 +3°C° 0 mm 3 m/S 753 mmHg 94%
    21:00 +3°C° 0 mm 3 m/S 753 mmHg 94%
    22:00 +3°C° 0 mm 3 m/S 753 mmHg 94%
    23:00 +3°C° 0 mm 4 m/S 753 mmHg 94%

    18 Dezember, Mittwoch

    Zeit Temperatur Niederschläge Wind Luftdruck Luftfeuchtigkeit
    00:00 +3°C° 0 mm 4 m/S 753 mmHg 95%
    01:00 +4°C° 0 mm 4 m/S 753 mmHg 96%
    02:00 +4°C° 0 mm 4 m/S 752 mmHg 97%
    03:00 +4°C° 0 mm 4 m/S 752 mmHg 97%
    04:00 +5°C° 0 mm 4 m/S 752 mmHg 96%
    05:00 +5°C° 0 mm 4 m/S 752 mmHg 96%
    06:00 +4°C° 0 mm 3 m/S 752 mmHg 96%
    07:00 +4°C° 0 mm 3 m/S 752 mmHg 96%
    08:00 +4°C° 0 mm 2 m/S 752 mmHg 95%
    09:00 +5°C° 0 mm 2 m/S 752 mmHg 88%
    10:00 +6°C° 0 mm 2 m/S 752 mmHg 82%
    11:00 +7°C° 0 mm 2 m/S 752 mmHg 75%
    12:00 +7°C° 0 mm 2 m/S 752 mmHg 72%
    13:00 +8°C° 0 mm 3 m/S 752 mmHg 69%
    14:00 +8°C° 0 mm 3 m/S 752 mmHg 67%
    15:00 +7°C° 0 mm 3 m/S 752 mmHg 70%
    16:00 +5°C° 0 mm 3 m/S 752 mmHg 74%
    17:00 +4°C° 0 mm 3 m/S 752 mmHg 77%
    18:00 +5°C° 0 mm 2 m/S 752 mmHg 79%
    19:00 +5°C° 0 mm 2 m/S 752 mmHg 80%
    20:00 +5°C° 0 mm 2 m/S 752 mmHg 81%
    21:00 +4°C° 0 mm 2 m/S 752 mmHg 82%
    22:00 +4°C° 0 mm 2 m/S 752 mmHg 83%
    23:00 +4°C° 0 mm 2 m/S 752 mmHg 85%

    19 Dezember, Donnerstag

    Zeit Temperatur Niederschläge Wind Luftdruck Luftfeuchtigkeit
    00:00 +4°C° 0 mm 2 m/S 752 mmHg 86%
    01:00 +4°C° 0 mm 2 m/S 752 mmHg 86%
    02:00 +4°C° 0 mm 2 m/S 752 mmHg 87%
    03:00 +4°C° 0 mm 2 m/S 752 mmHg 88%
    04:00 +3°C° 0 mm 2 m/S 751 mmHg 90%
    05:00 +3°C° 0 mm 2 m/S 751 mmHg 91%
    06:00 +3°C° 0 mm 2 m/S 751 mmHg 91%
    07:00 +3°C° 0 mm 2 m/S 751 mmHg 90%
    08:00 +2°C° 0 mm 3 m/S 751 mmHg 90%
    09:00 +3°C° 0 mm 3 m/S 751 mmHg 85%
    10:00 +4°C° 0 mm 3 m/S 751 mmHg 81%
    11:00 +5°C° 0 mm 3 m/S 751 mmHg 76%
    12:00 +5°C° 0 mm 3 m/S 751 mmHg 79%
    13:00 +7°C° 0 mm 3 m/S 750 mmHg 81%
    14:00 +7°C° 0 mm 3 m/S 750 mmHg 84%
    15:00 +5°C° 0 mm 3 m/S 750 mmHg 88%
    16:00 +4°C° 0 mm 3 m/S 750 mmHg 92%
    17:00 +4°C° 0 mm 3 m/S 749 mmHg 96%
    18:00 +4°C° 0 mm 3 m/S 749 mmHg 96%
    19:00 +4°C° 0 mm 3 m/S 749 mmHg 96%
    20:00 +4°C° 0 mm 3 m/S 749 mmHg 96%
    21:00 +5°C° 0 mm 2 m/S 749 mmHg 97%
    22:00 +5°C° 0 mm 2 m/S 748 mmHg 97%
    23:00 +5°C° 0 mm 2 m/S 748 mmHg 97%

    20 Dezember, Freitag

    Zeit Temperatur Niederschläge Wind Luftdruck Luftfeuchtigkeit
    00:00 +6°C° 0 mm 1 m/S 748 mmHg 97%
    01:00 +6°C° 0 mm 1 m/S 748 mmHg 97%
    02:00 +5°C° 0 mm 0 m/S 747 mmHg 96%
    03:00 +5°C° 0 mm 0 m/S 747 mmHg 96%
    04:00 +5°C° 0 mm 0 m/S 747 mmHg 95%
    05:00 +5°C° 0 mm 0 m/S 747 mmHg 95%
    06:00 +5°C° 0 mm 0 m/S 747 mmHg 95%
    07:00 +6°C° 0 mm 1 m/S 747 mmHg 95%
    08:00 +6°C° 0 mm 1 m/S 747 mmHg 94%
    09:00 +5°C° 0 mm 2 m/S 747 mmHg 92%
    10:00 +6°C° 0 mm 2 m/S 747 mmHg 90%
    11:00 +6°C° 0 mm 2 m/S 747 mmHg 87%
    12:00 +7°C° 0 mm 2 m/S 746 mmHg 86%
    13:00 +7°C° 0 mm 3 m/S 746 mmHg 85%
    14:00 +7°C° 0 mm 3 m/S 745 mmHg 83%
    15:00 +7°C° 0 mm 3 m/S 745 mmHg 85%
    16:00 +7°C° 0 mm 3 m/S 745 mmHg 87%
    17:00 +7°C° 0 mm 3 m/S 745 mmHg 89%
    18:00 +7°C° 0 mm 3 m/S 744 mmHg 90%
    19:00 +6°C° 0 mm 4 m/S 744 mmHg 91%
    20:00 +6°C° 0 mm 4 m/S 743 mmHg 92%
    21:00 +6°C° 0 mm 4 m/S 743 mmHg 92%
    22:00 +6°C° 0 mm 4 m/S 743 mmHg 93%
    23:00 +6°C° 0 mm 4 m/S 743 mmHg 94%
    Mehr zeigen